Location: Patterson (historical)
(35.1418°N, 90.5529°W)
Time: 09:22:23
(UTC+00:00)

Cosmos 1758 Rocket - Pass Details

Date: 11 December 2025
Orbit: 595 x 629 km, 82.5° (Epoch: 15 January)

Event Time Altitude Azimuth Distance (km) Brightness Sun altitude
Rises 12:06:25 0° 196° (SSW) 2,896 7.1 -10.9°
Reaches altitude 10° 12:08:41 10° 200° (SSW) 1,990 6.2 -10.5°
Maximum altitude 12:13:00 55° 279° (W) 751 3.6 -9.7°
Drops below altitude 10° 12:17:20 10° 357° (N) 1,987 5.9 -8.9°
Sets 12:19:36 0° 2° (N) 2,891 6.8 -8.4°
